Location: Espelette
(43.3402°N, 1.4474°W)
Time: 20:20:43
(UTC+00:00)

Cosmos 1570 Rocket - Pass Details

Date: 19 May 2025
Orbit: 759 x 785 km, 74.1° (Epoch: 21 June)

Event Time Altitude Azimuth Distance (km) Brightness Sun altitude
Exits shadow 21:19:37 11° 193° (SSW) 2,244 6.1 -16.5°
Maximum altitude 21:24:41 78° 108° (ESE) 787 3.9 -17.1°
Drops below altitude 10° 21:29:57 10° 23° (NNE) 2,324 6.9 -17.7°
Sets 21:32:21 0° 22° (NNE) 3,259 7.7 -17.9°
